This demonstration page uses our WeatherBlox Daily Observations layout. Learn more.

Left ArrowRight Arrow

Hourly Observations for November 8, 2019

Temp ( °F °C ) Dew Point ( °F °C ) Humidity (%) Winds ( mph kmh ) Pressure ( in mb ) Visibility ( mi km ) Precip ( " mm )
12:56 am 00:56 Clear 24 -4.4 18 -7.8 77 77 SSW 10 17 30.44 1031 10 16 0.00 0.00
1:56 am 01:56 Clear 26 -3.3 19 -7.2 75 75 SW 10 17 30.42 1030 10 16 0.00 0.00
2:56 am 02:56 Clear 23 -5 18 -7.8 81 81 SSW 9 15 30.41 1030 10 16 0.00 0.00
3:56 am 03:56 Clear 22 -5.6 18 -7.8 85 85 S 10 17 30.39 1029 10 16 0.00 0.00
4:56 am 04:56 Clear 25 -3.9 19 -7.2 78 78 SSW 10 17 30.36 1028 10 16 0.00 0.00
5:56 am 05:56 Clear 24 -4.4 18 -7.8 77 77 SSW 6 9 30.35 1028 10 16 0.00 0.00
6:56 am 06:56 Clear 23 -5 18 -7.8 81 81 SSW 7 11 30.36 1028 10 16 0.00 0.00
7:56 am 07:56 Sunny 25 -3.9 19 -7.2 78 78 SSW 12 19 30.34 1028 10 16 0.00 0.00
8:56 am 08:56 Sunny 30 -1.1 21 -6.1 69 69 SSW 12 19 30.33 1027 10 16 0.00 0.00
9:56 am 09:56 Sunny 36 2.2 22 -5.6 57 57 SSW 15 24 30.30 1026 10 16 0.00 0.00
10:56 am 10:56 Sunny 42 5.6 25 -3.9 51 51 SSW 21 33 30.25 1025 10 16 0.00 0.00
11:56 am 11:56 Sunny 46 7.8 26 -3.3 46 46 SW 21 33 30.22 1023 10 16 0.00 0.00
12:56 pm 12:56 Sunny 49 9.4 28 -2.2 44 44 SW 20 31 30.17 1022 10 16 0.00 0.00
1:56 pm 13:56 Sunny 53 11.7 30 -1.1 41 41 SW 20 31 30.14 1021 10 16 0.00 0.00
2:56 pm 14:56 Sunny 55 12.8 30 -1.1 38 38 WSW 14 22 30.12 1020 10 16 0.00 0.00
3:56 pm 15:56 Sunny 56 13.3 30 -1.1 37 37 SW 15 24 30.11 1020 10 16 0.00 0.00
4:56 pm 16:56 Sunny 53 11.7 30 -1.1 41 41 SW 8 13 30.10 1019 10 16 0.00 0.00
5:56 pm 17:56 Clear 46 7.8 29 -1.7 51 51 SSW 7 11 30.11 1020 10 16 0.00 0.00
6:56 pm 18:56 Clear 42 5.6 28 -2.2 58 58 SSW 8 13 30.12 1020 10 16 0.00 0.00
7:56 pm 19:56 Clear 45 7.2 29 -1.7 54 54 SW 9 15 30.11 1020 10 16 0.00 0.00
8:56 pm 20:56 Clear 45 7.2 28 -2.2 52 52 SW 12 19 30.09 1019 10 16 0.00 0.00
9:56 pm 21:56 Clear 48 8.9 28 -2.2 46 46 WSW 8 13 30.09 1019 10 16 0.00 0.00
10:56 pm 22:56 Clear 47 8.3 26 -3.3 44 44 W 9 15 30.09 1019 10 16 0.00 0.00
11:56 pm 23:56 Clear 41 5 25 -3.9 53 53 WNW 9 15 30.10 1019 10 16 0.00 0.00

Powered by AerisWeather